Location: Chabot Space and Science Center
(37.8191°N, 122.1819°W)
Time: 01:38:25
(UTC-08:00)

X-37B - Visible Passes

Search period start: 01 December 2021 00:00
Search period end: 11 December 2021 00:00
Orbit: 330 x 341 km, 45.0° (Epoch: 20 November)

Date Brightness Start Highest point End Pass type
(mag) Time Alt. Az. Time Alt. Az. Time Alt. Az.
03 Dec 2.8 18:36:51 10° SSW 18:37:48 16° S 18:37:48 16° S visible
04 Dec 3.1 18:56:43 10° SW 18:57:38 19° SW 18:57:38 19° SW visible
05 Dec 1.9 17:42:18 10° SSW 17:44:40 24° SE 17:46:10 16° E visible
05 Dec 4.1 19:17:17 10° W 19:17:23 11° W 19:17:23 11° W visible
06 Dec 0.3 18:02:08 10° SW 18:04:58 72° SSE 18:05:51 39° ENE visible
07 Dec 1.0 18:22:42 10° W 18:25:28 43° NNW 18:25:29 43° NNW visible
08 Dec 2.7 18:43:40 10° WNW 18:45:05 20° NW 18:45:05 20° NW visible
09 Dec 1.1 17:28:08 10° W 17:30:54 43° NNW 17:33:25 12° NE visible
10 Dec 1.9 17:49:04 10° WNW 17:51:31 24° NNW 17:52:57 17° NNE visible
